2022-08-29 00:00:48 r, 20.19m,0000000001Hz,0000650123c,0000001.411s, 028.6C,00002191
2022-08-29 00:10:50 r, 20.44m,0000000001Hz,0000816789c,0000001.773s, 028.3C,00002191
2022-08-29 00:20:48 r, 20.27m,0000000001Hz,0000703895c,0000001.528s, 028.3C,00002191
2022-08-29 00:30:48 r, 20.40m,0000000001Hz,0000792403c,0000001.720s, 028.3C,00002191
2022-08-29 00:40:48 r, 20.45m,0000000000Hz,0000821003c,0000001.782s, 028.3C,00002191
2022-08-29 00:50:48 r, 20.40m,0000000001Hz,0000785682c,0000001.705s, 028.3C,00002191
2022-08-29 01:00:48 r, 20.47m,0000000001Hz,0000845306c,0000001.834s, 028.3C,00002191
2022-08-29 01:10:48 r, 20.34m,0000000001Hz,0000746023c,0000001.619s, 028.3C,00002191
2022-08-29 01:20:49 r, 20.62m,0000000000Hz,0000954633c,0000002.072s, 028.3C,00002191
2022-08-29 01:30:48 r, 20.58m,0000000001Hz,0000921243c,0000001.999s, 028.3C,00002191
2022-08-29 01:40:48 r, 20.46m,0000000000Hz,0000831653c,0000001.805s, 028.3C,00002191
2022-08-29 01:50:50 r, 20.78m,0000000001Hz,0001112913c,0000002.415s, 028.3C,00002191
2022-08-29 02:00:48 r, 19.98m,0000000001Hz,0000540624c,0000001.173s, 028.0C,00002191
2022-08-29 02:10:48 r, 19.95m,0000000001Hz,0000523447c,0000001.136s, 028.0C,00002191
2022-08-29 02:20:50 r, 19.94m,0000000001Hz,0000514721c,0000001.117s, 027.7C,00002191
2022-08-29 02:30:48 r, 19.93m,0000000001Hz,0000510119c,0000001.107s, 027.3C,00002191
2022-08-29 02:40:48 r, 19.93m,0000000001Hz,0000511668c,0000001.110s, 027.0C,00002191
2022-08-29 02:50:48 r, 20.13m,0000000001Hz,0000616630c,0000001.338s, 026.7C,00002191
2022-08-29 03:00:48 r, 20.11m,0000000001Hz,0000602221c,0000001.307s, 027.0C,00002191
2022-08-29 03:10:48 r, 20.63m,0000000001Hz,0000967091c,0000002.099s, 027.0C,00002191
2022-08-29 03:20:48 r, 21.37m,0000000000Hz,0001886334c,0000004.094s, 027.0C,00002191
2022-08-29 03:30:48 r, 20.73m,0000000000Hz,0001063193c,0000002.307s, 027.0C,00002191
2022-08-29 03:40:48 r, 21.20m,0000000001Hz,0001628499c,0000003.534s, 027.0C,00002191
2022-08-29 03:50:50 r, 21.29m,0000000000Hz,0001762539c,0000003.825s, 026.7C,00002191
2022-08-29 04:00:48 r, 21.33m,0000000000Hz,0001826451c,0000003.964s, 026.4C,00002191
2022-08-29 04:10:48 r, 21.40m,0000000000Hz,0001934650c,0000004.198s, 026.4C,00002191
2022-08-29 04:20:50 r, 21.42m,0000000001Hz,0001968342c,0000004.272s, 026.4C,00002191
2022-08-29 04:30:48 r, 21.39m,0000000000Hz,0001909843c,0000004.145s, 026.1C,00002191
2022-08-29 04:40:48 r, 21.37m,0000000000Hz,0001878716c,0000004.077s, 026.1C,00002191
2022-08-29 04:50:48 r, 21.35m,0000000000Hz,0001858221c,0000004.033s, 026.1C,00002191
2022-08-29 05:00:49 r, 21.35m,0000000000Hz,0001838997c,0000003.991s, 025.7C,00002191
2022-08-29 05:10:48 r, 20.44m,0000000000Hz,0000813015c,0000001.764s, 025.7C,00002191
2022-08-29 05:20:49 r, 19.83m,0000000001Hz,0000466618c,0000001.013s, 025.7C,00002191
2022-08-29 05:30:48 r, 19.21m,0000000002Hz,0000262198c,0000000.569s, 025.4C,00002191
2022-08-29 05:40:48 r, 18.07m,0000000005Hz,0000092311c,0000000.200s, 025.4C,00002191
2022-08-29 05:50:49 r, 16.81m,0000000016Hz,0000028978c,0000000.063s, 025.7C,00002191
2022-08-29 06:00:50 r, 15.93m,0000000036Hz,0000012951c,0000000.028s, 025.7C,00002191
2022-08-29 06:10:48 r, 14.29m,0000000162Hz,0000000000c,0000000.000s, 026.1C,00002191
2022-08-29 06:20:50 r, 12.58m,0000000785Hz,0000000000c,0000000.000s, 026.1C,00002191
2022-08-29 06:30:49 r, 10.76m,0000004210Hz,0000000000c,0000000.000s, 026.1C,00002191
2022-08-29 06:40:48 r, 09.85m,0000009678Hz,0000000000c,0000000.000s, 026.4C,00002191
2022-08-29 06:50:50 r, 08.24m,0000042975Hz,0000000000c,0000000.000s, 026.7C,00002191
2022-08-29 07:00:49 r, 08.41m,0000036744Hz,0000000000c,0000000.000s, 027.0C,00002191
2022-08-29 07:10:48 r, 07.70m,0000070353Hz,0000000000c,0000000.000s, 027.0C,00002191
2022-08-29 07:20:48 r, 07.60m,0000077702Hz,0000000000c,0000000.000s, 027.3C,00002191
2022-08-29 07:30:49 r, 07.24m,0000107932Hz,0000000000c,0000000.000s, 027.3C,00002191
2022-08-29 07:40:48 r, 06.18m,0000285162Hz,0000000000c,0000000.000s, 027.7C,00002191
2022-08-29 07:50:49 r, 06.51m,0000210582Hz,0000000000c,0000000.000s, 027.7C,00002191
2022-08-29 08:00:49 r, 06.37m,0000238816Hz,0000000000c,0000000.000s, 028.0C,00002191
2022-08-29 08:10:48 r, 00.00m,0000438561Hz,0000000000c,0000000.000s, 028.0C,00002191
2022-08-29 08:20:50 r, 00.00m,0000596723Hz,0000000000c,0000000.000s, 028.3C,00002191
2022-08-29 08:30:49 r, 00.00m,0000596660Hz,0000000000c,0000000.000s, 028.6C,00002191
2022-08-29 08:40:48 r, 00.00m,0000596598Hz,0000000000c,0000000.000s, 029.0C,00002191
2022-08-29 08:50:50 r, 00.00m,0000596710Hz,0000000000c,0000000.000s, 029.0C,00002191
2022-08-29 09:00:49 r, 00.00m,0000596594Hz,0000000000c,0000000.000s, 029.0C,00002191
2022-08-29 09:10:48 r, 00.00m,0000596640Hz,0000000000c,0000000.000s, 029.0C,00002191
2022-08-29 09:20:49 r, 00.00m,0000552492Hz,0000000000c,0000000.000s, 029.3C,00002191
2022-08-29 09:30:49 r, 00.00m,0000596678Hz,0000000000c,0000000.000s, 029.0C,00002191
2022-08-29 09:40:48 r, 06.74m,0000171816Hz,0000000000c,0000000.000s, 028.6C,00002191
2022-08-29 09:50:49 r, 06.81m,0000160634Hz,0000000000c,0000000.000s, 028.3C,00002191
2022-08-29 10:00:49 r, 00.00m,0000535265Hz,0000000000c,0000000.000s, 028.3C,00002191
2022-08-29 10:10:48 r, 06.23m,0000273099Hz,0000000000c,0000000.000s, 028.6C,00002191
2022-08-29 10:20:49 r, 00.00m,0000596714Hz,0000000000c,0000000.000s, 028.6C,00002191
2022-08-29 10:30:50 r, 00.00m,0000596672Hz,0000000000c,0000000.000s, 029.0C,00002191
2022-08-29 10:40:48 r, 00.00m,0000596740Hz,0000000000c,0000000.000s, 029.0C,00002191
2022-08-29 10:50:48 r, 00.00m,0000596622Hz,0000000000c,0000000.000s, 029.3C,00002191
2022-08-29 11:00:49 r, 00.00m,0000596765Hz,0000000000c,0000000.000s, 029.3C,00002191
2022-08-29 11:10:48 r, 00.00m,0000596638Hz,0000000000c,0000000.000s, 029.3C,00002191
2022-08-29 11:20:50 r, 00.00m,0000596572Hz,0000000000c,0000000.000s, 029.9C,00002191
2022-08-29 11:30:49 r, 00.00m,0000596495Hz,0000000000c,0000000.000s, 030.2C,00002191
2022-08-29 11:40:48 r, 00.00m,0000596429Hz,0000000000c,0000000.000s, 030.9C,00002191
2022-08-29 11:50:49 r, 00.00m,0000596358Hz,0000000000c,0000000.000s, 031.5C,00002191
2022-08-29 12:00:49 r, 00.00m,0000596237Hz,0000000000c,0000000.000s, 032.5C,00002191
2022-08-29 12:10:48 r, 00.00m,0000596218Hz,0000000000c,0000000.000s, 032.5C,00002191
2022-08-29 12:20:48 r, 00.00m,0000596254Hz,0000000000c,0000000.000s, 032.8C,00002191
2022-08-29 12:30:50 r, 00.00m,0000596361Hz,0000000000c,0000000.000s, 032.2C,00002191
2022-08-29 12:40:48 r, 00.00m,0000596406Hz,0000000000c,0000000.000s, 031.9C,00002191
2022-08-29 12:50:48 r, 00.00m,0000596414Hz,0000000000c,0000000.000s, 031.5C,00002191
2022-08-29 13:00:49 r, 00.00m,0000596337Hz,0000000000c,0000000.000s, 031.9C,00002191
2022-08-29 13:10:48 r, 00.00m,0000596302Hz,0000000000c,0000000.000s, 031.9C,00002191
2022-08-29 13:20:51 r, 00.00m,0000596205Hz,0000000000c,0000000.000s, 032.5C,00002191
2022-08-29 13:30:49 r, 00.00m,0000596137Hz,0000000000c,0000000.000s, 033.1C,00002191
2022-08-29 13:40:48 r, 00.00m,0000596004Hz,0000000000c,0000000.000s, 034.1C,00002191
2022-08-29 13:50:49 r, 00.00m,0000595930Hz,0000000000c,0000000.000s, 034.4C,00002191
2022-08-29 14:00:50 r, 00.00m,0000595936Hz,0000000000c,0000000.000s, 034.1C,00002191
2022-08-29 14:10:48 r, 00.00m,0000596027Hz,0000000000c,0000000.000s, 033.8C,00002191
2022-08-29 14:20:48 r, 00.00m,0000595958Hz,0000000000c,0000000.000s, 034.1C,00002191
2022-08-29 14:30:51 r, 00.00m,0000595923Hz,0000000000c,0000000.000s, 034.8C,00002191
2022-08-29 14:40:48 r, 00.00m,0000595871Hz,0000000000c,0000000.000s, 035.1C,00002191
2022-08-29 14:50:48 r, 00.00m,0000595964Hz,0000000000c,0000000.000s, 034.8C,00002191
2022-08-29 15:00:51 r, 00.00m,0000595883Hz,0000000000c,0000000.000s, 034.4C,00002191
2022-08-29 15:10:48 r, 00.00m,0000596016Hz,0000000000c,0000000.000s, 034.1C,00002191
2022-08-29 15:20:51 r, 00.00m,0000595885Hz,0000000000c,0000000.000s, 034.8C,00002191
2022-08-29 15:30:49 r, 00.00m,0000595812Hz,0000000000c,0000000.000s, 035.1C,00002191
2022-08-29 15:40:48 r, 00.00m,0000595235Hz,0000000000c,0000000.000s, 038.6C,00002191
2022-08-29 15:50:51 r, 00.00m,0000594748Hz,0000000000c,0000000.000s, 041.5C,00002191
2022-08-29 16:00:49 r, 00.00m,0000594720Hz,0000000000c,0000000.000s, 042.8C,00002191
2022-08-29 16:10:48 r, 00.00m,0000594700Hz,0000000000c,0000000.000s, 043.5C,00002191
2022-08-29 16:20:49 r, 00.00m,0000594553Hz,0000000000c,0000000.000s, 043.8C,00002191
2022-08-29 16:30:51 r, 00.00m,0000594532Hz,0000000000c,0000000.000s, 044.4C,00002191
2022-08-29 16:40:48 r, 00.00m,0000594914Hz,0000000000c,0000000.000s, 043.1C,00002191
2022-08-29 16:50:48 r, 00.00m,0000595211Hz,0000000000c,0000000.000s, 040.2C,00002191
2022-08-29 17:00:51 r, 00.00m,0000595205Hz,0000000000c,0000000.000s, 039.9C,00002191
2022-08-29 17:10:48 r, 00.00m,0000595508Hz,0000000000c,0000000.000s, 038.0C,00002191
2022-08-29 17:20:51 r, 00.00m,0000568324Hz,0000000000c,0000000.000s, 039.0C,00002191
2022-08-29 17:30:49 r, 00.00m,0000595284Hz,0000000000c,0000000.000s, 039.3C,00002191
2022-08-29 17:40:48 r, 00.00m,0000595178Hz,0000000000c,0000000.000s, 039.6C,00002191
2022-08-29 17:50:48 r, 00.00m,0000595201Hz,0000000000c,0000000.000s, 039.6C,00002191
2022-08-29 18:00:49 r, 00.00m,0000595201Hz,0000000000c,0000000.000s, 039.6C,00002191
2022-08-29 18:10:48 r, 00.00m,0000595214Hz,0000000000c,0000000.000s, 039.3C,00002191
2022-08-29 18:20:48 r, 00.00m,0000595321Hz,0000000000c,0000000.000s, 039.0C,00002191
2022-08-29 18:30:50 r, 00.00m,0000595345Hz,0000000000c,0000000.000s, 038.3C,00002191
2022-08-29 18:40:48 r, 00.00m,0000595405Hz,0000000000c,0000000.000s, 038.0C,00002191
2022-08-29 18:50:48 r, 00.00m,0000595526Hz,0000000000c,0000000.000s, 037.3C,00002191
2022-08-29 19:00:51 r, 00.00m,0000595571Hz,0000000000c,0000000.000s, 037.0C,00002191
2022-08-29 19:10:48 r, 00.00m,0000595670Hz,0000000000c,0000000.000s, 036.4C,00002191
2022-08-29 19:20:48 r, 00.00m,0000501011Hz,0000000000c,0000000.000s, 035.7C,00002191
2022-08-29 19:30:49 r, 05.86m,0000381206Hz,0000000000c,0000000.000s, 035.1C,00002191
2022-08-29 19:40:48 r, 06.20m,0000279559Hz,0000000000c,0000000.000s, 034.1C,00002191
2022-08-29 19:50:48 r, 06.79m,0000161811Hz,0000000000c,0000000.000s, 033.1C,00002191
2022-08-29 20:00:49 r, 07.01m,0000132899Hz,0000000000c,0000000.000s, 031.9C,00002191
2022-08-29 20:10:48 r, 07.89m,0000058945Hz,0000000000c,0000000.000s, 031.2C,00002191
2022-08-29 20:20:48 r, 08.77m,0000026181Hz,0000000000c,0000000.000s, 030.6C,00002191
2022-08-29 20:30:50 r, 10.10m,0000007722Hz,0000000000c,0000000.000s, 029.6C,00002191
2022-08-29 20:40:48 r, 11.88m,0000001492Hz,0000000000c,0000000.000s, 029.0C,00002191
2022-08-29 20:50:48 r, 13.94m,0000000223Hz,0000000000c,0000000.000s, 028.6C,00002191
2022-08-29 21:00:51 r, 15.75m,0000000041Hz,0000011007c,0000000.024s, 028.0C,00002191
2022-08-29 21:10:48 r, 17.52m,0000000009Hz,0000055878c,0000000.121s, 027.7C,00002191
2022-08-29 21:20:48 r, 18.98m,0000000002Hz,0000213054c,0000000.462s, 027.3C,00002191
2022-08-29 21:30:51 r, 20.08m,0000000001Hz,0000586312c,0000001.272s, 027.3C,00002191
2022-08-29 21:40:49 r, 21.08m,0000000000Hz,0001450096c,0000003.147s, 027.0C,00002191
2022-08-29 21:50:48 r, 21.35m,0000000001Hz,0001859662c,0000004.036s, 027.0C,00002191
2022-08-29 22:00:49 r, 21.57m,0000000000Hz,0002262798c,0000004.911s, 026.7C,00002191
2022-08-29 22:10:50 r, 21.57m,0000000000Hz,0002293739c,0000004.978s, 026.7C,00002191
2022-08-29 22:20:48 r, 21.61m,0000000000Hz,0002351400c,0000005.103s, 026.7C,00002191
2022-08-29 22:30:50 r, 21.66m,0000000001Hz,0002442051c,0000005.300s, 026.7C,00002191
2022-08-29 22:40:49 r, 21.65m,0000000001Hz,0002437213c,0000005.289s, 026.4C,00002191
2022-08-29 22:50:48 r, 21.63m,0000000000Hz,0002375722c,0000005.156s, 026.4C,00002191
2022-08-29 23:00:51 r, 21.61m,0000000000Hz,0002357503c,0000005.116s, 026.4C,00002191
2022-08-29 23:10:49 r, 21.58m,0000000000Hz,0002296912c,0000004.985s, 026.1C,00002191
2022-08-29 23:20:48 r, 21.57m,0000000000Hz,0002269049c,0000004.924s, 026.1C,00002191
2022-08-29 23:30:51 r, 21.58m,0000000000Hz,0002307256c,0000005.007s, 025.7C,00002191
2022-08-29 23:40:49 r, 21.58m,0000000000Hz,0002306302c,0000005.005s, 025.4C,00002191
2022-08-29 23:50:48 r, 21.62m,0000000000Hz,0002375374c,0000005.155s, 025.1C,00002191
